Location: Nelson
(47.1935°N, 121.0537°W)
Time: 22:53:28
(UTC+00:00)

Envisat - Pass Details

Date: 28 November 2022
Orbit: 763 x 765 km, 98.2° (Epoch: 08 February)

Event Time Altitude Azimuth Distance (km) Brightness Sun altitude
Rises 14:05:57 0° 359° (N) 3,246 6.1 -13.3°
Reaches altitude 10° 14:09:11 10° 338° (NNW) 2,314 5.1 -12.7°
Enters shadow 14:11:36 15° 309° (NW) 1,977 4.6 -12.3°
